Temperature
14 11 10 11 12 13 14 13 12 10 8 6 4 3 3 3 3 2 2 2 3 3 3 3 3 3 3 3 3 3 2 2 2 2 1 2 2 2 2 2 2 3 3 4
11 11 11 12 11 12 13 12 11 8 8 5 3 3 3 3 2 2 2 2 2 2 2 2 2 2 2 2 2 1 1 -0 -1 -1 -1 -1 -1 -0 0 1 1 2 2 2
11 12 12 12 10 11 12 13 12 9 5 5 4 3 3 3 3 2 2 2 1 1 1 0 0 0 0 0 -0 -1 -1 -2 -3 -3 -2 -2 -1 -1 -1 -0 0 1 1 1
11 11 11 11 10 10 11 12 11 10 6 4 5 2 2 2 2 2 2 2 1 1 0 -1 -1 -1 -2 -2 -3 -3 -3 -3 -4 -4 -3 -4 -5 -5 -5 -4 -3 -1 -0 1
11 11 10 11 11 11 10 9 9 9 7 6 5 3 2 2 1 1 2 2 1 0 -1 -2 -2 -3 -4 -4 -4 -4 -4 -4 -4 -5 -4 -5 -6 -6 -5 -5 -5 -4 -3 -2
10 12 10 10 10 10 8 9 9 7 7 8 6 5 2 1 2 1 2 2 1 -0 -1 -3 -3 -4 -5 -5 -5 -5 -5 -6 -6 -5 -5 -6 -6 -6 -6 -6 -6 -6 -6 -5
10 11 10 11 10 9 7 8 8 9 8 8 4 3 1 2 2 2 2 1 0 -1 -3 -4 -4 -5 -5 -6 -6 -6 -6 -7 -7 -6 -6 -6 -7 -7 -7 -7 -7 -6 -6 -6
10 10 9 9 10 10 8 8 8 9 7 6 4 3 1 2 3 3 2 1 -0 -2 -3 -4 -5 -5 -6 -6 -6 -6 -7 -8 -8 -7 -7 -7 -8 -8 -8 -8 -7 -7 -7 -6
9 10 9 9 9 9 9 6 7 6 5 4 4 2 2 2 2 2 2 1 -1 -3 -4 -5 -5 -6 -7 -7 -8 -8 -8 -8 -8 -8 -8 -8 -8 -8 -8 -8 -7 -7 -7 -7
8 8 9 8 9 7 6 5 4 5 6 6 5 3 2 1 0 -0 0 0 -1 -3 -4 -5 -6 -7 -7 -8 -8 -8 -9 -9 -9 -9 -9 -9 -9 -9 -9 -8 -8 -8 -7 -7
7 7 7 7 7 7 7 6 4 3 4 4 3 4 1 2 1 -1 0 -0 -2 -4 -5 -6 -7 -7 -8 -8 -8 -9 -9 -9 -10 -10 -10 -10 -10 -10 -9 -9 -8 -8 -7 -7
5 5 6 7 7 6 6 6 4 4 4 2 2 3 3 2 1 0 0 -1 -3 -5 -6 -7 -7 -8 -8 -8 -9 -9 -10 -10 -10 -10 -10 -10 -10 -10 -10 -9 -9 -9 -8 -7
6 5 7 8 7 6 5 5 5 2 2 1 1 2 2 1 1 1 -0 -2 -4 -5 -6 -7 -8 -9 -9 -9 -9 -10 -10 -11 -11 -11 -11 -11 -11 -11 -11 -10 -10 -9 -9 -8
5 5 6 9 7 5 5 5 4 2 1 1 1 1 0 -1 -1 0 -1 -3 -5 -6 -7 -8 -9 -9 -10 -10 -10 -10 -11 -11 -12 -12 -11 -11 -12 -12 -11 -11 -11 -10 -10 -9
5 5 5 4 4 4 4 4 3 2 1 1 0 0 -0 -1 -1 -1 -2 -4 -5 -7 -8 -9 -10 -10 -10 -10 -10 -11 -11 -12 -12 -12 -12 -12 -12 -13 -12 -12 -11 -11 -10 -9
3 4 4 4 3 2 3 3 2 2 2 1 0 -0 0 1 -0 -1 -3 -5 -7 -8 -9 -9 -10 -10 -10 -11 -11 -12 -12 -12 -13 -13 -13 -13 -13 -13 -13 -13 -12 -12 -11 -10
2 3 4 3 1 3 2 2 2 2 2 1 -0 -0 -0 -1 -1 -2 -4 -6 -7 -8 -9 -10 -10 -10 -11 -11 -12 -12 -13 -13 -13 -13 -14 -14 -14 -14 -14 -14 -13 -13 -12 -11
1 2 1 1 1 4 3 2 2 2 1 0 -0 -1 0 -1 -2 -3 -5 -6 -7 -8 -10 -10 -10 -10 -11 -11 -12 -12 -13 -13 -13 -14 -14 -14 -14 -14 -14 -14 -14 -13 -13 -12
1 1 0 -0 1 1 2 2 2 1 0 0 0 0 0 -1 -3 -4 -6 -7 -8 -9 -10 -10 -10 -11 -11 -12 -12 -13 -13 -13 -14 -14 -14 -14 -15 -14 -15 -15 -14 -14 -13 -13
0 -1 -2 -1 2 3 4 2 2 1 -1 1 1 -0 -1 -3 -4 -5 -6 -7 -8 -9 -9 -10 -10 -11 -11 -12 -12 -13 -13 -14 -14 -14 -14 -14 -15 -15 -15 -15 -15 -14 -14 -14
1 0 -1 -2 -1 1 2 2 1 0 1 1 1 -0 -2 -4 -5 -6 -7 -7 -8 -8 -9 -9 -10 -10 -11 -12 -13 -13 -14 -14 -14 -14 -14 -14 -14 -15 -15 -15 -15 -14 -14 -14
1 -0 -1 -2 -1 0 2 0 -0 1 2 1 -0 -1 -3 -4 -6 -7 -7 -8 -8 -8 -9 -9 -10 -10 -11 -12 -13 -13 -14 -14 -14 -14 -14 -14 -14 -15 -15 -15 -15 -14 -15 -15
-0 1 0 0 1 2 3 3 2 2 1 0 -1 -2 -3 -5 -6 -7 -7 -8 -8 -9 -9 -9 -10 -10 -11 -11 -13 -13 -14 -14 -14 -14 -14 -14 -14 -14 -15 -15 -15 -15 -15 -15
-1 0 -1 -1 -1 2 2 2 2 1 0 -1 -2 -3 -4 -5 -6 -7 -7 -8 -8 -8 -9 -9 -10 -10 -10 -11 -12 -13 -13 -14 -14 -14 -14 -14 -14 -14 -14 -14 -15 -15 -15 -15
-0 -2 -2 -1 -0 1 2 2 1 0 -0 -1 -3 -4 -5 -6 -7 -7 -8 -8 -8 -9 -9 -9 -10 -10 -10 -11 -11 -12 -13 -14 -14 -14 -13 -13 -13 -14 -14 -14 -14 -15 -15 -15
-1 -1 -1 0 1 1 1 1 1 0 -1 -2 -3 -4 -5 -6 -7 -7 -8 -8 -8 -9 -9 -9 -10 -10 -10 -11 -11 -12 -13 -13 -13 -13 -13 -13 -14 -14 -15 -15 -15 -15 -15 -15
Wind_Speed
8 9 7 6 4 1 3 4 5 5 6 9 15 13 7 7 10 13 13 14 16 14 12 11 14 17 18 18 18 19 20 20 17 16 15 15 15 13 11 15 21 23 24 24
8 8 7 3 6 6 5 7 6 6 7 8 13 10 6 7 7 6 8 10 11 13 15 15 17 18 19 17 15 16 18 18 16 16 14 13 14 12 12 17 21 22 24 23
8 4 5 6 9 8 4 4 4 7 6 7 9 5 3 3 3 4 6 7 9 12 12 12 14 16 19 19 19 18 18 18 17 19 14 16 13 12 14 16 15 20 24 22
7 6 7 8 7 6 3 2 4 7 7 6 6 5 5 2 4 7 8 9 10 11 10 10 14 16 19 18 18 18 19 19 18 19 19 20 16 16 17 15 14 18 21 20
6 6 8 7 5 4 6 6 3 3 6 5 3 5 4 2 5 7 8 9 10 10 10 11 12 15 17 16 17 18 19 18 18 18 20 19 17 16 16 16 18 17 15 17
5 3 4 3 4 3 5 4 3 5 4 2 1 5 4 1 2 6 7 9 10 10 9 10 10 11 12 12 15 18 18 17 17 19 19 19 20 21 21 21 19 17 16 15
7 5 8 5 7 9 10 8 7 8 5 2 1 3 4 5 4 5 8 9 9 9 9 10 11 14 15 16 19 20 20 19 18 18 18 18 19 20 20 20 19 19 16 17
4 4 7 6 3 3 6 6 4 3 6 5 2 1 5 6 5 6 8 8 8 9 8 9 10 13 14 17 19 20 20 21 19 19 19 17 18 15 15 18 18 17 15 17
3 4 5 5 5 4 4 4 1 4 4 5 3 1 2 3 6 8 9 8 8 8 8 8 9 13 14 15 16 17 19 20 20 20 20 18 18 17 17 18 17 15 16 18
0 4 5 6 7 8 7 6 6 5 6 7 7 3 3 4 9 9 9 9 7 7 8 8 9 12 14 13 13 15 17 18 19 19 17 17 17 17 17 17 18 18 19 19
2 1 6 6 7 6 5 5 6 4 2 3 7 6 6 3 6 9 10 9 8 9 10 8 9 10 13 11 12 14 16 18 19 19 18 18 17 18 18 17 18 19 19 20
3 3 3 2 2 2 5 5 5 1 2 3 3 6 4 1 6 8 9 7 7 8 10 7 8 9 11 11 13 14 16 17 18 18 18 18 18 19 19 19 19 19 19 19
3 3 3 4 1 4 4 2 4 4 3 4 4 7 1 5 7 9 9 7 7 8 9 7 8 9 11 11 12 13 14 16 17 17 17 17 18 19 19 19 20 19 19 19
4 2 3 5 5 2 3 1 3 5 4 5 7 8 9 11 11 13 10 6 7 10 9 9 9 9 10 10 11 12 13 14 16 17 16 17 17 18 18 18 19 19 19 19
4 2 2 3 3 4 4 2 4 6 6 6 7 7 10 9 10 12 9 8 11 11 12 11 12 10 10 11 12 14 14 14 15 16 17 17 17 17 17 18 18 18 19 19
3 2 1 2 2 4 4 4 5 5 4 5 7 8 6 8 8 9 9 9 11 13 13 13 14 14 12 12 14 14 14 14 14 15 16 17 17 17 16 17 18 18 18 18
2 2 1 4 6 4 5 7 7 5 5 5 7 6 7 9 10 11 6 7 10 12 12 13 12 11 11 10 12 13 14 13 14 14 15 16 17 17 17 18 18 17 16 16
5 4 2 3 6 5 4 2 4 3 6 6 7 7 8 8 9 4 5 6 8 9 10 10 10 11 9 8 10 12 12 12 13 13 14 15 16 17 17 16 16 15 13 13
3 5 3 2 4 9 4 3 4 2 6 4 5 8 8 6 6 1 4 5 6 5 6 7 7 8 9 10 11 12 12 12 13 14 14 14 14 15 15 15 15 13 11 10
6 6 5 3 2 6 2 4 4 3 6 5 5 7 6 6 8 3 3 5 6 5 6 7 8 8 9 10 10 11 12 12 13 14 14 14 13 15 13 14 14 14 12 13
2 3 4 5 6 9 4 5 6 2 5 1 1 3 2 2 3 4 5 6 5 6 7 7 8 8 9 10 10 11 12 12 14 15 14 14 14 14 11 11 12 13 14 14
8 6 6 5 5 9 5 8 7 7 1 1 1 1 1 3 3 5 6 7 8 9 8 8 8 9 9 9 10 11 12 13 14 14 15 14 13 13 13 11 11 11 12 12
7 8 6 10 8 3 5 7 5 3 0 2 2 1 1 1 2 4 6 7 7 8 9 8 9 10 9 9 10 12 13 13 13 14 14 14 14 12 11 10 10 10 9 10
5 5 5 6 7 6 4 3 3 4 4 4 4 3 3 1 2 4 6 7 8 9 8 9 10 11 11 11 11 11 13 14 14 15 15 14 12 12 10 11 10 9 9 10
7 7 5 6 5 2 3 4 5 5 6 6 5 4 4 2 2 3 5 7 8 10 10 10 10 12 13 13 13 14 13 12 14 15 15 14 13 12 10 10 9 11 8 11
7 8 8 7 6 6 4 5 7 7 5 6 6 5 4 3 2 4 5 6 6 9 11 11 12 13 13 14 15 14 13 12 14 15 15 13 13 12 12 11 12 15 15 19
Wind_Direction
26 51 33 10 23 145 152 113 97 82 104 82 96 97 74 39 44 36 25 18 11 3 354 2 6 4 1 0 3 2 359 356 357 358 355 350 346 343 340 340 339 338 340 340
44 26 333 333 20 55 97 108 107 102 98 102 106 94 71 43 50 40 23 12 359 355 357 1 3 3 358 353 353 357 356 353 357 357 348 342 335 334 337 338 338 340 340 337
84 336 339 50 33 37 46 126 160 144 75 99 115 88 64 35 38 37 24 7 357 359 350 356 1 0 356 353 350 350 351 350 355 356 350 346 343 343 345 341 337 337 335 333
71 7 28 47 36 22 318 277 241 174 148 176 158 161 207 247 7 8 357 354 348 348 347 355 358 358 354 349 347 348 349 349 355 357 352 349 346 343 339 335 329 327 327 327
41 13 24 27 348 338 278 306 252 167 147 112 147 141 209 308 357 339 331 334 331 339 348 353 354 355 348 346 353 351 347 350 354 355 351 347 343 340 335 334 331 331 328 326
19 25 50 338 321 340 320 21 82 68 92 108 245 186 221 258 304 301 309 318 322 336 347 346 345 351 344 350 354 349 345 346 353 354 349 347 344 340 337 337 334 333 330 330
10 12 356 0 8 6 22 38 18 6 5 266 71 122 204 211 223 272 298 312 323 336 340 337 344 352 352 356 357 351 345 345 352 351 347 345 346 341 337 335 330 328 328 330
47 347 341 5 43 16 32 65 87 299 280 288 17 185 224 222 237 276 290 302 322 331 331 333 348 354 353 357 356 351 347 346 348 347 344 342 346 341 336 332 326 324 327 326
41 290 315 1 22 68 75 69 115 169 285 284 286 358 286 246 292 300 300 309 325 330 331 337 357 359 355 354 353 347 345 344 345 345 342 341 343 339 336 331 325 326 327 325
120 300 324 332 41 34 100 118 67 53 343 313 309 258 220 263 301 310 318 324 330 336 339 354 5 2 354 350 349 345 345 343 341 341 341 341 337 336 334 333 332 329 328 327
35 311 328 22 38 0 34 54 73 86 147 256 299 290 174 227 308 315 316 327 342 344 345 355 4 360 351 347 351 347 346 345 343 341 339 338 337 338 337 336 334 332 329 329
67 94 330 320 20 31 109 112 121 135 259 213 247 274 165 177 313 312 319 337 345 342 340 348 360 353 347 347 350 348 346 345 343 340 339 339 338 339 339 337 335 334 331 332
71 84 7 2 338 7 60 108 141 133 145 190 217 269 158 329 332 337 338 339 326 334 336 346 354 345 343 343 346 346 345 343 341 341 340 339 339 339 338 337 335 336 335 335
99 100 181 242 261 291 296 221 151 143 187 230 234 275 321 333 336 334 336 325 319 342 336 344 346 339 338 341 343 342 341 341 342 341 340 340 339 337 335 336 337 338 338 339
91 154 258 280 338 284 253 222 178 182 196 218 260 281 297 311 320 318 326 333 341 345 342 347 346 341 339 342 344 343 339 339 340 340 340 340 338 336 337 338 341 341 342 342
68 117 335 282 334 298 236 196 181 189 201 247 277 281 267 302 315 318 327 340 343 341 342 346 344 341 341 343 344 340 336 335 337 337 337 338 339 340 340 341 344 344 343 343
79 90 15 289 314 340 272 206 187 208 214 223 257 264 303 318 321 325 341 359 347 340 343 343 340 336 333 337 340 335 332 330 334 335 335 338 339 341 341 345 346 344 342 343
123 106 105 319 5 290 276 162 165 235 264 244 242 269 297 301 305 342 55 10 344 337 338 334 333 330 324 328 333 331 328 330 334 335 335 337 338 339 340 345 345 342 338 341
117 130 111 72 305 281 281 207 179 223 283 243 230 276 301 320 312 132 56 11 329 325 325 320 323 317 320 327 332 332 330 332 336 337 336 335 335 336 339 344 342 341 338 341
69 93 111 127 264 263 263 162 132 106 291 261 243 285 311 347 336 344 37 349 330 332 325 319 318 317 322 323 328 330 329 331 334 336 333 331 333 335 336 341 339 341 343 346
143 105 142 178 233 267 232 139 117 149 271 264 280 305 323 292 271 342 358 340 340 332 321 318 318 318 317 320 327 328 326 325 328 330 330 330 330 326 333 337 334 337 343 344
184 172 190 168 218 264 195 143 175 217 259 6 49 87 266 280 324 344 335 332 336 330 325 319 320 319 317 319 325 323 321 319 321 323 324 324 324 323 332 330 328 332 336 339
203 194 188 195 217 256 189 189 192 156 104 85 136 160 145 348 335 327 327 327 328 328 325 324 318 318 318 318 322 317 314 316 318 318 316 315 317 317 316 319 322 325 329 333
250 190 193 244 256 239 231 193 107 83 105 118 128 123 113 99 334 332 332 333 333 330 328 330 326 325 322 320 317 310 310 316 315 315 313 311 311 308 306 313 319 319 318 319
224 182 205 252 267 233 216 155 118 107 113 113 102 96 94 87 4 339 320 324 329 333 333 331 326 321 317 317 315 313 313 312 311 311 310 311 309 303 300 300 303 308 302 307
196 182 182 219 208 170 173 131 133 143 143 133 125 108 80 63 10 335 317 318 324 329 329 327 323 317 316 317 314 312 312 311 309 311 312 311 310 308 308 307 304 302 308 318
Height
1553 1559 1568 1568 1566 1564 1564 1568 1573 1579 1584 1591 1598 1607 1610 1609 1604 1602 1600 1597 1594 1592 1589 1584 1578 1573 1567 1560 1554 1548 1542 1537 1531 1525 1519 1513 1508 1503 1499 1496 1492 1488 1484 1480
1563 1571 1570 1567 1566 1565 1564 1570 1575 1585 1587 1594 1604 1609 1610 1608 1607 1605 1603 1599 1596 1591 1586 1581 1576 1571 1566 1560 1553 1547 1541 1535 1529 1523 1518 1512 1507 1502 1497 1492 1488 1483 1478 1474
1571 1574 1569 1568 1570 1570 1569 1569 1571 1579 1592 1595 1602 1612 1611 1609 1607 1605 1602 1599 1595 1591 1586 1581 1576 1571 1566 1559 1553 1547 1540 1534 1527 1520 1513 1507 1500 1495 1490 1486 1482 1477 1473 1469
1572 1572 1571 1572 1573 1573 1573 1567 1569 1572 1586 1597 1597 1611 1612 1608 1605 1602 1600 1597 1594 1591 1586 1582 1576 1570 1564 1558 1551 1545 1538 1531 1525 1517 1510 1504 1498 1492 1487 1482 1477 1472 1468 1464
1575 1574 1574 1575 1575 1572 1571 1569 1569 1571 1579 1589 1592 1603 1610 1606 1605 1603 1599 1597 1594 1590 1586 1582 1576 1570 1563 1556 1549 1542 1535 1528 1522 1515 1509 1502 1497 1492 1485 1479 1473 1467 1462 1458
1576 1574 1574 1575 1573 1571 1570 1570 1570 1576 1579 1582 1587 1592 1606 1607 1605 1603 1599 1597 1594 1590 1585 1580 1574 1568 1560 1554 1547 1539 1532 1526 1520 1513 1507 1501 1495 1489 1482 1475 1469 1463 1458 1453
1581 1578 1577 1575 1575 1573 1575 1579 1583 1581 1583 1583 1595 1597 1606 1604 1602 1601 1598 1595 1592 1589 1583 1577 1570 1563 1556 1550 1544 1537 1531 1525 1518 1512 1506 1499 1493 1487 1480 1474 1468 1462 1456 1449
1586 1587 1582 1579 1579 1580 1583 1586 1596 1596 1594 1590 1593 1598 1606 1601 1600 1599 1597 1594 1590 1586 1581 1576 1569 1562 1555 1549 1542 1536 1529 1523 1517 1510 1503 1497 1491 1485 1479 1473 1467 1462 1456 1449
1593 1588 1584 1582 1581 1580 1584 1593 1593 1600 1600 1601 1596 1604 1603 1600 1599 1597 1594 1591 1588 1584 1579 1574 1567 1561 1555 1548 1542 1535 1528 1522 1515 1508 1501 1495 1489 1483 1476 1470 1465 1459 1453 1446
1593 1592 1587 1586 1584 1587 1589 1593 1600 1603 1604 1600 1594 1600 1603 1601 1600 1595 1591 1588 1585 1582 1577 1571 1565 1559 1554 1547 1541 1535 1528 1521 1514 1507 1501 1494 1487 1481 1474 1467 1460 1454 1447 1442
1594 1597 1594 1592 1594 1595 1593 1596 1603 1611 1611 1612 1610 1599 1601 1600 1598 1595 1590 1586 1584 1580 1575 1570 1563 1558 1552 1545 1539 1533 1526 1519 1512 1505 1499 1492 1485 1478 1471 1464 1456 1449 1443 1438
1598 1602 1601 1597 1596 1594 1594 1598 1603 1609 1610 1614 1617 1605 1598 1598 1596 1593 1589 1586 1583 1579 1575 1569 1562 1556 1549 1542 1536 1530 1524 1518 1511 1504 1497 1490 1484 1476 1469 1462 1454 1448 1441 1436
1598 1601 1599 1595 1599 1597 1597 1597 1600 1607 1613 1617 1619 1605 1597 1596 1594 1592 1589 1585 1582 1578 1573 1566 1560 1554 1547 1540 1533 1528 1522 1515 1509 1502 1495 1488 1481 1474 1467 1460 1453 1447 1440 1434
1597 1602 1602 1597 1595 1598 1598 1598 1600 1607 1612 1611 1608 1602 1597 1595 1592 1589 1586 1583 1580 1576 1570 1564 1557 1552 1545 1539 1532 1526 1519 1513 1507 1500 1493 1486 1479 1473 1466 1460 1453 1446 1440 1434
1598 1602 1601 1601 1601 1600 1598 1598 1600 1603 1604 1607 1604 1602 1597 1594 1591 1587 1584 1580 1577 1573 1567 1561 1555 1550 1544 1537 1530 1524 1518 1512 1505 1498 1491 1484 1477 1471 1465 1458 1452 1446 1440 1434
1599 1602 1602 1601 1603 1602 1600 1599 1599 1600 1601 1602 1602 1600 1594 1592 1589 1585 1581 1577 1574 1570 1565 1559 1554 1548 1542 1536 1528 1522 1516 1510 1504 1497 1490 1483 1477 1470 1463 1457 1451 1445 1439 1434
1603 1604 1605 1605 1605 1600 1599 1597 1597 1598 1597 1600 1601 1597 1592 1590 1586 1583 1578 1576 1573 1568 1563 1557 1552 1547 1541 1535 1528 1521 1515 1509 1503 1496 1489 1483 1476 1470 1463 1457 1451 1445 1439 1434
1604 1607 1611 1612 1608 1599 1596 1593 1594 1596 1596 1595 1595 1593 1591 1588 1584 1580 1577 1575 1572 1567 1562 1556 1551 1545 1539 1533 1527 1520 1514 1508 1502 1495 1489 1483 1476 1470 1463 1457 1451 1445 1440 1435
1601 1606 1613 1618 1614 1604 1596 1593 1594 1596 1595 1592 1592 1590 1588 1584 1580 1577 1576 1574 1570 1565 1560 1555 1549 1543 1537 1531 1525 1519 1513 1507 1501 1494 1489 1483 1477 1470 1464 1458 1452 1446 1441 1436
1604 1606 1617 1620 1609 1598 1589 1591 1591 1596 1596 1591 1590 1589 1586 1582 1580 1579 1575 1572 1568 1564 1559 1553 1547 1542 1535 1529 1523 1517 1512 1506 1500 1494 1489 1483 1477 1471 1466 1460 1454 1448 1443 1438
1605 1609 1614 1619 1616 1596 1589 1589 1592 1599 1596 1590 1588 1587 1584 1582 1582 1579 1574 1571 1566 1562 1557 1552 1546 1540 1534 1528 1522 1516 1511 1505 1500 1494 1489 1483 1477 1471 1466 1461 1455 1450 1444 1439
1600 1607 1609 1614 1615 1601 1585 1586 1590 1590 1588 1588 1586 1584 1582 1580 1578 1575 1572 1569 1565 1560 1556 1550 1545 1539 1533 1527 1521 1515 1510 1505 1499 1493 1488 1482 1476 1471 1465 1459 1454 1450 1445 1439
1594 1592 1592 1593 1588 1581 1581 1581 1583 1585 1585 1585 1584 1581 1579 1577 1575 1573 1570 1567 1563 1559 1554 1549 1543 1538 1532 1526 1520 1514 1508 1503 1497 1491 1486 1480 1475 1470 1464 1458 1453 1448 1444 1440
1588 1585 1586 1584 1579 1579 1581 1581 1582 1583 1583 1582 1581 1579 1577 1576 1573 1572 1569 1566 1562 1557 1552 1547 1542 1536 1530 1525 1519 1513 1507 1501 1495 1489 1482 1476 1471 1466 1462 1457 1452 1447 1443 1439
1579 1581 1582 1580 1576 1578 1579 1580 1580 1581 1580 1579 1578 1577 1576 1574 1572 1571 1568 1565 1560 1556 1552 1547 1541 1535 1529 1523 1518 1511 1505 1499 1493 1486 1479 1473 1468 1462 1457 1454 1450 1446 1442 1440
1571 1572 1575 1574 1571 1573 1576 1577 1578 1578 1577 1576 1576 1575 1574 1573 1572 1570 1567 1564 1560 1556 1551 1546 1540 1534 1528 1522 1516 1510 1503 1497 1490 1483 1476 1470 1464 1458 1453 1449 1444 1442 1440 1437